M-CUBED & EXP-1 PRIME (37855 NORAD) Tracking and Keplerian Element Data

This shows tracking and keplerian element data for the satellite.

Feedback or suggestion? Click here.




ElementValue
Catalog37855
NameM-CUBED & EXP-1 PRIME
Epoch Orbit49054
Epoch Day297.89460379
Epoch Year2020
RAAN92.617
Inclination101.7268
Eccentricity0.0169881
Argument of Perigee53.6475
Mean Anonmoly308.0281
Mean Motion15.06664939
Decay Rate1.532E-05
L11 37855U 11061F 20297.89460379 .00001532 00000-0 82218-4 0 9999
L22 37855 101.7268 92.6170 0169881 53.6475 308.0281 15.06664939490546

Live tracking and technical data element details for M-CUBED & EXP-1 PRIME (NORAD 37855). M-CUBED & EXP-1 PRIME can be tracked NOW for your location showing map with azimuth and elevation plus other details from your city location.

Track the satellite on the map from your city or location and see movement details for azimuth, elevation, latitude, longitude, range, height, and movement on the map or in text.







IsCatalogInMostPopularTable: catalog: 37855, numindb: 232
Update: records affected: 1



GetName: 37855 M-CUBED & EXP-1 PRIME

Hit Count: updated at: Sun, 25 Oct 2020 07:10:55 GMT